Owen Roberts, Cayman Islands

4:06 PM EST on March 25, 2017 (GMT -0500)
Roberts International

Weather History for MWCR - June, 2013

Change the Weather History Date:

Saturday, June 1, 2013

  Actual Average Record
Temperature  
Mean Temperature 82 °F -  
Max Temperature 87 °F 86 °F 90 °F (2016)
Min Temperature 76 °F 78 °F 75 °F (1997)
Cooling Degree Days 16    
Growing Degree Days 32 (Base 50)    
Moisture  
Dew Point 79 °F    
Average Humidity 85    
Maximum Humidity 94    
Minimum Humidity 74    
Precipitation  
Precipitation 0.04 in - - ()
Sea Level Pressure  
Sea Level Pressure 29.93 in    
Wind  
Wind Speed 7 mph ()    
Max Wind Speed 12 mph    
Max Gust Speed -    
Visibility 5.8 miles    
Events Rain    
Averages and records for this station are not official NWS values.
T = Trace of Precipitation, MM = Missing Value Source: Averaged Metar Reports

Daily Weather History Graph

Daily Weather History Graph

Search for Another Location

Airport or City:

Trip Planner

Search our weather history database for the weather conditions in past years. The results will help you decide how hot, cold, wet, or windy it might be!

Date:

Astronomy

Jun. 01, 2013 Rise Set
Actual Time 5:46 AM EST 6:59 PM EST
Civil Twilight 5:22 AM EST 7:24 PM EST
Nautical Twilight 4:53 AM EST 7:52 PM EST
Astronomical Twilight 4:24 AM EST 8:22 PM EST
Moon 12:51 AM EST (6/1) 1:13 PM EST (6/1)
Length of Visible Light 14h 01m
Length of Day
13h 13m
Last Quarter, 40% of the Moon is Illuminated
Jun 1
Last Quarter
Jun 8
New
Jun 16
First Quarter
Jun 23
Full
Jun 29
Last Quarter

Hourly Weather History & Observations

Time (EST) Temp. Heat Index Dew Point Humidity Pressure Visibility Wind Dir Wind Speed Gust Speed Precip Events Conditions
6:00 AM 80.6 °F 87.1 °F 77.0 °F 89% 29.92 in 5.0 mi SE 6.9 mph - N/A Rain Light Rain Showers
7:00 AM 81 °F - 78 °F 87% 29.96 in 4 mi SSE 6.9 mph - - Rain Light Rain
7:00 AM 80.6 °F 87.1 °F 77.0 °F 89% 29.95 in 4.3 mi SSE 6.9 mph - N/A Rain Light Rain
8:00 AM 80.6 °F 88.1 °F 78.8 °F 94% 29.95 in 5.0 mi SE 6.9 mph - N/A Rain Light Rain
9:00 AM 80.6 °F 88.1 °F 78.8 °F 94% 29.98 in 5.0 mi SE 5.8 mph - N/A Rain Light Rain
10:00 AM 82.4 °F 92.4 °F 78.8 °F 89% 29.98 in 6.2 mi SE 6.9 mph - N/A   Scattered Clouds
11:00 AM 84.2 °F 96.1 °F 78.8 °F 84% 29.95 in 6.2 mi SE 8.1 mph - N/A   Partly Cloudy
12:00 PM 84.2 °F 96.1 °F 78.8 °F 84% 29.95 in 6.2 mi SE 8.1 mph - N/A   Scattered Clouds
1:00 PM 86 °F - 79 °F 74% 29.93 in 6 mi SE 8.1 mph - -   Partly Cloudy
1:00 PM 86.0 °F 99.3 °F 78.8 °F 79% 29.92 in 6.2 mi SE 8.1 mph - N/A   Partly Cloudy
2:00 PM 86.0 °F 99.3 °F 78.8 °F 79% 29.92 in 6.2 mi SE 11.5 mph - N/A   Partly Cloudy
3:00 PM 86.0 °F 99.3 °F 78.8 °F 79% 29.89 in 6.2 mi ESE 11.5 mph - N/A   Mostly Cloudy
4:00 PM 86.0 °F 99.3 °F 78.8 °F 79% 29.89 in 6.2 mi ESE 10.4 mph - N/A   Mostly Cloudy
5:00 PM 86.0 °F 99.3 °F 78.8 °F 79% 29.89 in 6.2 mi ESE 9.2 mph - N/A   Mostly Cloudy
6:00 PM 84.2 °F 96.1 °F 78.8 °F 84% 29.89 in 6.2 mi ESE 10.4 mph - N/A   Scattered Clouds
7:00 PM 83 °F - 79 °F 83% 29.92 in 6 mi ESE 8.1 mph - - Rain Light Rain Showers
7:00 PM 82.4 °F 92.4 °F 78.8 °F 89% 29.92 in 6.2 mi ESE 8.1 mph - N/A   Mostly Cloudy
8:00 PM 82.4 °F 92.4 °F 78.8 °F 89% 29.92 in 6.2 mi ESE 8.1 mph - N/A   Mostly Cloudy
9:00 PM 82.4 °F 92.4 °F 78.8 °F 89% 29.92 in 6.2 mi ESE 8.1 mph - N/A   Mostly Cloudy
10:00 PM 82.4 °F 92.4 °F 78.8 °F 89% 29.95 in 6.2 mi ESE 6.9 mph - N/A   Mostly Cloudy